Content
SEND FEEDBACK

Daily
Averages
Monthly
Summary
Taiwan

T'AITUNG, TAIWAN


Home > Asia > Taiwan
Elevation: 31 feet     Latitude: 22 45N     Longitude: 121 09E

WEATHER
 
SELECT A DAY
Number of Records: 206,895;   Date Range: 7/1/96 - 4/21/13
 
SHARE

PRINT THIS DATA

[ ← Previous Day ]
WEATHER ALMANAC - JANUARY 23, 2013
[ Next Day → ]
[ °C ]   °F
Weather ElementAverageHighLow
Temperature73.1 °F84.2 °F (1:00 pm)64.4 °F (6:30 am)
Dewpoint62.7 °F64.4 °F (10:00 am)60.8 °F (6:00 am)
Humidity71 %88 % (3:00 am)51 % (12:00 pm)
Barometer30.03 in30.09 in (7:00 am)29.98 in (1:30 pm)
Wind Speed6.5 mph11.5 mph (2:00 pm)
Weather ElementAverage
Visibility2.5 mi
Wind DirectionWSW (251.2 °)

Weather ElementTotal
Precipitation---
Cooling Degree Days9.3 (Base 65)
Growing Degree Days24.3 (Base 50)
Averaged from 41 records on January 23, 2013
WEATHER CONDITIONS BREAKOUT
WIND DIRECTION BREAKOUT
WEATHER BY HOUR - JANUARY 23, 2013
[ °C ]   °F
Local TimeTemperatureDewpointHumidityBarometerVisibilityWind DirectionWind SpeedGust SpeedPrecipitationEventsConditions
1:00 AM69.8 °F62.6 °F78 %30.06 in2.5 miNorth (350°)6.9 mphHaze
2:00 AM68.0 °F62.6 °F83 %30.06 in2.5 miNNE (30°)5.8 mphMostly Cloudy
3:00 AM66.2 °F62.6 °F88 %30.06 in2.5 miNorth (360°)4.6 mphMostly Cloudy
4:00 AM66.2 °F62.6 °F88 %30.06 in2.2 miNorth (360°)6.9 mphScattered Clouds
5:00 AM66.2 °F62.6 °F88 %30.06 inNorth (10°)8.1 mphScattered Clouds
6:00 AM66.2 °F60.8 °F83 %30.06 inNorth (350°)8.1 mphScattered Clouds
6:30 AM64.4 °F60.8 °F88 %30.06 in1.0 miNorth (360°)8.1 mphScattered Clouds
7:00 AM64.4 °F60.8 °F88 %30.09 in1.1 miNorth (350°)6.9 mphScattered Clouds
7:30 AM66.2 °F62.6 °F88 %30.09 in0.9 miNorth (10°)8.1 mphScattered Clouds
8:00 AM66.2 °F62.6 °F88 %30.09 in0.9 miNorth (360°)8.1 mphMostly Cloudy
8:30 AM68.0 °F62.6 °F83 %30.09 in0.9 miNorth (10°)8.1 mphMostly Cloudy
9:00 AM69.8 °F62.6 °F78 %30.09 in1.4 miNorth (360°)8.1 mphHaze
9:30 AM69.8 °F62.6 °F78 %30.09 in1.4 miNNE (20°)6.9 mphHaze
10:00 AM71.6 °F64.4 °F78 %30.09 in1.6 miNorth (10°)8.1 mphHaze
10:30 AM75.2 °F64.4 °F69 %30.09 in1.7 miNorth (360°)6.9 mphHaze
11:00 AM77.0 °F64.4 °F65 %30.06 in1.9 miNNW (340°)8.1 mphHaze
11:30 AM80.6 °F64.4 °F58 %30.06 in1.9 miNNW (340°)6.9 mphHaze
12:00 PM82.4 °F62.6 °F51 %30.04 in2.2 miNorth (350°)4.6 mphHaze
12:30 PM82.4 °F64.4 °F54 %30.01 in2.2 miNNW (330°)6.9 mphHaze
1:00 PM84.2 °F64.4 °F51 %30.01 in2.5 miNW (320°)5.8 mphHaze
1:30 PM82.4 °F64.4 °F54 %29.98 inWNW (290°)10.4 mphHaze
2:00 PM80.6 °F64.4 °F58 %29.98 in2.2 miNNW (340°)11.5 mphHaze
2:30 PM80.6 °F64.4 °F58 %29.98 in2.5 miNW (320°)8.1 mphHaze
3:00 PM80.6 °F62.6 °F54 %29.98 in2.8 miNNW (330°)4.6 mphHaze
3:30 PM82.4 °F64.4 °F54 %29.98 in2.8 miNW (310°)5.8 mphHaze
4:00 PM80.6 °F64.4 °F58 %29.98 in3.7 miWNW (300°)6.9 mphPartly Cloudy
4:30 PM78.8 °F62.6 °F57 %29.98 in3.7 miWest (280°)6.9 mphPartly Cloudy
5:00 PM78.8 °F64.4 °F61 %29.98 in3.7 miWNW (300°)5.8 mphScattered Clouds
5:30 PM75.2 °F64.4 °F69 %29.98 in3.7 miNW (320°)6.9 mphScattered Clouds
6:00 PM73.4 °F62.6 °F69 %29.98 in2.8 miNNW (330°)6.9 mphHaze
6:30 PM73.4 °F62.6 °F69 %29.98 in3.7 miNNW (330°)4.6 mphMostly Cloudy
7:00 PM73.4 °F62.6 °F69 %30.01 in3.7 miNNW (330°)4.6 mphMostly Cloudy
7:30 PM73.4 °F62.6 °F69 %30.01 in3.7 miNorth (350°)5.8 mphMostly Cloudy
8:00 PM71.6 °F62.6 °F73 %30.01 in3.7 miNorth (350°)6.9 mphMostly Cloudy
8:30 PM71.6 °F60.8 °F69 %30.01 in3.7 miNNW (340°)5.8 mphMostly Cloudy
9:00 PM69.8 °F60.8 °F73 %30.01 in3.7 miNorth (360°)4.6 mphScattered Clouds
9:30 PM69.8 °F60.8 °F73 %30.01 in3.7 miNorth (10°)3.5 mphScattered Clouds
10:00 PM69.8 °F60.8 °F73 %30.01 in3.1 miNNE (20°)3.5 mphHaze
10:30 PM69.8 °F60.8 °F73 %30.01 in3.1 miNNE (30°)3.5 mphHaze
11:00 PM69.8 °F60.8 °F73 %30.01 inNE (40°)3.5 mphHaze
11:30 PM68.0 °F60.8 °F78 %30.01 in2.8 miNE (40°)5.8 mphHaze
Hourly data recorded from RCFN, located miles away from T'aitung, Taiwan







STORIES FROM OUR PARTNERS